Location: Tucson
(32.2217°N, 110.9265°W)
Time: 20:34:08
(UTC-07:00)

A-11 Canister half - Pass Details

Date: 26 October 2021
Orbit: 1516 x 1684 km, 47.2° (Epoch: 28 November)

Event Time Altitude Azimuth Distance (km) Brightness Sun altitude
Rises 20:56:52 0° 293° (WNW) 4,907 12.4 -42.4°
Reaches altitude 10° 21:00:33 10° 303° (WNW) 3,901 11.7 -43.1°
Enters shadow 21:08:04 32° 351° (N) 2,505 10.1 -44.7°
